�������l�o���
Date,Time,MP-1(��Sv/h),MP-2(��Sv/h),MP-3(��Sv/h),MP-4(��Sv/h),MP-5(��Sv/h),MP-6(��Sv/h),MP-7(��Sv/h),MP-8(��Sv/h),����,����(m/s),���J
2015/03/11,00:00,1.862,3.355,3.648,3.308,3.380,1.067,1.765,1.857,���쐼,7.7,��
2015/03/11,00:10,1.862,3.355,3.650,3.307,3.382,1.067,1.765,1.857,�쐼,6.9,��
2015/03/11,00:20,1.862,3.360,3.648,3.308,3.382,1.065,1.765,1.857,�쐼,7.7,��
2015/03/11,00:30,1.862,3.357,3.647,3.312,3.378,1.065,1.765,1.857,��쐼,6.7,��
2015/03/11,00:40,1.857,3.357,3.648,3.312,3.375,1.067,1.763,1.857,�쐼,7.7,��
2015/03/11,00:50,1.860,3.360,3.648,3.307,3.377,1.063,1.765,1.857,�쐼,7.1,��
2015/03/11,01:00,1.863,3.357,3.652,3.308,3.377,1.065,1.770,1.853,�쐼,7.4,��
2015/03/11,01:10,1.863,3.357,3.652,3.310,3.380,1.067,1.767,1.857,��쐼,6.8,��
2015/03/11,01:20,1.863,3.357,3.653,3.312,3.385,1.067,1.765,1.855,��쐼,7.4,��
2015/03/11,01:30,1.865,3.362,3.657,3.310,3.382,1.067,1.767,1.858,��쐼,8.2,��
2015/03/11,01:40,1.867,3.358,3.655,3.315,3.387,1.063,1.767,1.860,��쐼,8.6,��
2015/03/11,01:50,1.863,3.363,3.655,3.315,3.388,1.068,1.767,1.857,��쐼,8.6,��
2015/03/11,02:00,1.862,3.357,3.652,3.313,3.385,1.068,1.765,1.857,��쐼,9.1,��
2015/03/11,02:10,1.863,3.358,3.652,3.317,3.385,1.068,1.765,1.858,��쐼,8.5,��
2015/03/11,02:20,1.867,3.360,3.652,3.312,3.387,1.068,1.765,1.857,�쐼,9.6,��
2015/03/11,02:30,1.868,3.362,3.650,3.313,3.383,1.067,1.765,1.858,�쐼,10.1,��
2015/03/11,02:40,1.865,3.363,3.648,3.313,3.387,1.067,1.765,1.858,�쐼,9.1,��
2015/03/11,02:50,1.862,3.363,3.653,3.312,3.387,1.067,1.763,1.857,��쐼,9.1,��
2015/03/11,03:00,1.865,3.357,3.655,3.313,3.387,1.065,1.765,1.857,��쐼,8.0,��
2015/03/11,03:10,1.865,3.357,3.657,3.313,3.388,1.067,1.765,1.857,��쐼,8.5,��
2015/03/11,03:20,1.863,3.365,3.655,3.313,3.388,1.068,1.765,1.857,��쐼,7.2,��
2015/03/11,03:30,1.863,3.360,3.657,3.310,3.388,1.068,1.767,1.853,��쐼,7.1,��
2015/03/11,03:40,1.867,3.358,3.657,3.312,3.387,1.068,1.765,1.857,��쐼,6.6,��
2015/03/11,03:50,1.867,3.357,3.653,3.312,3.387,1.070,1.765,1.857,��쐼,6.8,��
2015/03/11,04:00,1.870,3.353,3.653,3.313,3.388,1.067,1.768,1.853,��쐼,5.8,��
2015/03/11,04:10,1.865,3.352,3.652,3.307,3.388,1.067,1.768,1.855,��쐼,5.7,�L
2015/03/11,04:20,1.867,3.347,3.647,3.305,3.382,1.068,1.765,1.855,��쐼,6.6,��
2015/03/11,04:30,1.865,3.340,3.643,3.302,3.378,1.068,1.765,1.855,��쐼,6.7,��
2015/03/11,04:40,1.863,3.343,3.640,3.303,3.380,1.065,1.765,1.858,��,6.3,��
2015/03/11,04:50,1.860,3.345,3.643,3.302,3.375,1.065,1.765,1.852,��,6.3,��
2015/03/11,05:00,1.867,3.343,3.640,3.308,3.378,1.065,1.767,1.853,��,6.7,��
2015/03/11,05:10,1.865,3.345,3.642,3.307,3.380,1.067,1.765,1.853,��,6.8,��
2015/03/11,05:20,1.862,3.343,3.642,3.303,3.382,1.065,1.765,1.853,��,7.1,��
2015/03/11,05:30,1.862,3.343,3.638,3.305,3.382,1.065,1.762,1.852,��,6.6,��
2015/03/11,05:40,1.862,3.340,3.643,3.305,3.380,1.067,1.767,1.857,��쐼,5.4,��
2015/03/11,05:50,1.862,3.338,3.640,3.305,3.382,1.063,1.767,1.853,��쐼,6.0,��
2015/03/11,06:00,1.865,3.340,3.640,3.305,3.380,1.063,1.765,1.857,��,4.4,��
2015/03/11,06:10,1.865,3.338,3.640,3.303,3.383,1.062,1.765,1.858,��,4.9,��
2015/03/11,06:20,1.863,3.338,3.638,3.303,3.382,1.060,1.765,1.855,��,5.4,��
2015/03/11,06:30,1.860,3.342,3.643,3.300,3.387,1.060,1.767,1.855,��,6.0,��
2015/03/11,06:40,1.858,3.340,3.640,3.302,3.382,1.062,1.767,1.857,��,7.1,��
2015/03/11,06:50,1.863,3.342,3.640,3.302,3.380,1.062,1.765,1.853,��,6.5,��
2015/03/11,07:00,1.860,3.343,3.642,3.305,3.385,1.060,1.768,1.853,��,6.3,��
2015/03/11,07:10,1.862,3.342,3.647,3.303,3.383,1.057,1.770,1.855,��,6.3,��
2015/03/11,07:20,1.858,3.342,3.647,3.307,3.380,1.055,1.767,1.853,��,4.9,��
2015/03/11,07:30,1.860,3.345,3.642,3.308,3.383,1.050,1.767,1.858,��쐼,5.1,��
2015/03/11,07:40,1.862,3.347,3.645,3.307,3.387,1.050,1.767,1.858,��,6.0,��
2015/03/11,07:50,1.860,3.348,3.647,3.310,3.388,1.047,1.768,1.858,��쐼,5.2,��
2015/03/11,08:00,1.862,3.347,3.645,3.310,3.390,1.047,1.768,1.857,��쐼,6.3,��
2015/03/11,08:10,1.862,3.345,3.648,3.310,3.388,1.047,1.770,1.855,��쐼,6.3,��
2015/03/11,08:20,1.863,3.347,3.650,3.308,3.390,1.045,1.768,1.855,��쐼,7.8,��
2015/03/11,08:30,1.862,3.350,3.652,3.310,3.393,1.045,1.770,1.855,�쐼,7.7,��
2015/03/11,08:40,1.863,3.352,3.653,3.313,3.400,1.045,1.767,1.853,�쐼,8.6,��
2015/03/11,08:50,1.865,3.355,3.657,3.312,3.398,1.047,1.768,1.853,�쐼,11.8,��
2015/03/11,09:00,1.867,3.357,3.653,3.313,3.400,1.047,1.770,1.857,���쐼,13.2,��
2015/03/11,09:10,1.867,3.358,3.657,3.313,3.400,1.047,1.770,1.858,�쐼,12.6,��
2015/03/11,09:20,1.867,3.352,3.658,3.310,3.402,1.047,1.770,1.857,���쐼,11.6,��
2015/03/11,09:30,1.868,-,3.657,3.310,3.405,1.047,1.770,1.855,���쐼,10.8,��
2015/03/11,09:40,1.867,-,3.657,3.317,3.410,1.043,1.768,1.857,���쐼,9.4,��
2015/03/11,09:50,1.865,-,3.660,3.315,3.408,1.043,1.772,1.858,�쐼,9.4,��
2015/03/11,10:00,1.865,-,3.663,3.315,3.417,1.047,1.772,1.855,���쐼,9.3,��
2015/03/11,10:10,1.863,3.358,3.667,3.315,3.397,1.048,1.773,1.853,�쐼,9.6,��
2015/03/11,10:20,1.865,3.367,3.660,3.317,3.393,1.048,1.773,1.855,�쐼,9.6,��
2015/03/11,10:30,1.863,3.358,3.662,3.318,3.395,1.048,1.770,1.855,���쐼,11.0,��
2015/03/11,10:40,1.870,3.357,3.663,3.318,3.387,1.047,1.770,1.857,���쐼,8.2,��
2015/03/11,10:50,1.867,3.370,3.665,3.318,3.370,1.047,1.770,1.857,�쐼,9.4,��
2015/03/11,11:00,1.867,3.373,3.665,3.318,3.373,1.048,1.772,1.858,���쐼,9.9,��
2015/03/11,11:10,1.870,3.370,3.668,3.322,3.397,1.050,1.772,1.857,���쐼,9.6,��
2015/03/11,11:20,1.873,3.373,3.667,3.323,3.395,1.047,1.775,1.858,���쐼,8.8,��
2015/03/11,11:30,1.870,3.372,3.670,3.323,3.417,1.048,1.773,1.858,���쐼,8.5,��
2015/03/11,11:40,1.870,3.375,3.670,3.322,3.417,1.052,1.775,1.857,���쐼,9.9,��
2015/03/11,11:50,1.870,3.373,3.670,3.323,3.420,1.048,1.772,1.858,��,9.9,��
2015/03/11,12:00,1.870,3.367,3.668,3.320,3.423,1.048,1.775,1.855,���쐼,8.9,��
2015/03/11,12:10,1.873,3.368,3.672,3.325,3.427,1.048,1.773,1.858,���쐼,8.6,��
2015/03/11,12:20,1.870,3.378,3.673,3.328,3.427,1.050,1.773,1.855,���쐼,6.3,��
2015/03/11,12:30,1.875,3.377,3.678,3.323,3.428,1.052,1.773,1.852,���쐼,9.6,��
2015/03/11,12:40,1.875,3.380,3.682,3.328,3.433,1.052,1.773,1.850,���쐼,6.8,��
2015/03/11,12:50,1.875,3.382,3.678,3.330,3.433,1.052,1.775,1.848,���쐼,10.5,��
2015/03/11,13:00,1.877,3.383,3.682,3.327,3.437,1.055,1.775,1.845,���쐼,9.3,��
2015/03/11,13:10,1.875,3.382,3.682,3.332,3.437,1.053,1.777,1.847,���쐼,7.7,��
2015/03/11,13:20,1.882,3.385,3.685,3.335,3.437,1.053,1.777,1.842,���쐼,8.2,��
2015/03/11,13:30,1.882,3.388,3.687,3.332,3.442,1.055,1.777,1.845,���쐼,9.7,��
2015/03/11,13:40,1.880,3.387,3.688,3.332,3.442,1.052,1.777,1.842,���쐼,7.1,��
2015/03/11,13:50,1.878,3.368,3.688,3.330,3.440,1.055,1.778,1.843,���쐼,9.7,��
2015/03/11,14:00,1.880,3.380,3.688,3.332,3.443,1.058,1.778,1.840,���쐼,8.5,��
2015/03/11,14:10,1.877,3.375,3.688,3.332,3.438,1.058,1.777,1.840,���쐼,7.2,��
2015/03/11,14:20,1.878,3.382,3.688,3.335,3.445,1.058,1.775,1.840,���쐼,7.2,��
2015/03/11,14:30,1.878,3.368,3.690,3.335,3.443,1.063,1.777,1.842,���쐼,5.8,��
2015/03/11,14:40,1.878,3.363,3.690,3.340,3.447,1.062,1.778,1.847,��,5.5,��
2015/03/11,14:50,1.882,3.378,3.687,3.337,3.447,1.063,1.778,1.845,���쐼,5.7,��
2015/03/11,15:00,1.882,3.380,3.690,3.333,3.450,1.062,1.778,1.847,��,8.0,��
2015/03/11,15:10,1.880,3.385,3.688,3.340,3.452,1.063,1.780,1.847,���쐼,8.6,��
2015/03/11,15:20,1.878,-,3.692,3.338,3.452,1.067,1.777,1.843,��,9.1,��
2015/03/11,15:30,1.880,-,3.688,3.337,3.448,1.070,1.777,1.847,��,10.8,��
2015/03/11,15:40,1.883,-,3.693,3.338,3.447,1.067,1.777,1.845,���쐼,7.7,��
2015/03/11,15:50,1.880,-,3.697,3.340,3.452,1.070,1.778,1.845,��,9.3,��
2015/03/11,16:00,1.883,-,3.693,3.343,3.452,1.070,1.780,1.843,���쐼,6.7,��
2015/03/11,16:10,1.883,-,3.697,3.340,3.453,1.068,1.783,1.847,���쐼,6.6,��
2015/03/11,16:20,1.883,-,3.695,3.340,3.453,1.073,1.780,1.847,���쐼,9.6,��
2015/03/11,16:30,1.885,-,3.698,3.342,3.453,1.070,1.780,1.845,���쐼,8.8,��
2015/03/11,16:40,1.887,-,3.693,3.345,3.453,1.072,1.783,1.847,���쐼,9.9,��
2015/03/11,16:50,1.885,-,3.695,3.342,3.453,1.070,1.780,1.848,���쐼,8.6,��
2015/03/11,17:00,1.883,-,3.695,3.342,3.452,1.070,1.780,1.847,���쐼,10.2,��
2015/03/11,17:10,1.882,-,3.697,3.340,3.450,1.068,1.780,1.850,���쐼,11.0,��
2015/03/11,17:20,1.877,3.385,3.697,3.345,3.450,1.067,1.780,1.845,���쐼,9.1,��
2015/03/11,17:30,1.882,3.393,3.695,3.343,3.450,1.072,1.782,1.848,���쐼,12.6,��
2015/03/11,17:40,1.880,3.392,3.695,3.340,3.455,1.072,1.780,1.847,���쐼,10.4,��
2015/03/11,17:50,1.880,3.393,3.693,3.340,3.453,1.072,1.777,1.843,���쐼,12.6,��
2015/03/11,18:00,1.882,3.393,3.697,3.340,3.455,1.070,1.780,1.843,���쐼,12.3,��
2015/03/11,18:10,1.883,3.395,3.692,3.342,3.455,1.070,1.778,1.847,���쐼,11.5,��
2015/03/11,18:20,1.882,3.395,3.692,3.343,3.453,1.073,1.780,1.845,���쐼,12.4,��
2015/03/11,18:30,1.883,3.393,3.693,3.345,3.453,1.073,1.780,1.845,���쐼,11.6,��
2015/03/11,18:40,1.882,3.397,3.692,3.342,3.455,1.072,1.780,1.848,���쐼,13.8,��
2015/03/11,18:50,1.882,3.395,3.693,3.338,3.453,1.072,1.780,1.847,��,13.8,��
2015/03/11,19:00,1.883,3.393,3.695,3.340,3.455,1.070,1.777,1.847,���쐼,11.3,��
2015/03/11,19:10,1.880,3.390,3.692,3.342,3.453,1.068,1.778,1.847,��,8.5,��
2015/03/11,19:20,1.883,3.395,3.693,3.342,3.455,1.068,1.777,1.845,��,7.4,��
2015/03/11,19:30,1.883,3.397,3.690,3.343,3.455,1.068,1.777,1.845,���쐼,6.5,��
2015/03/11,19:40,1.882,3.393,3.690,3.345,3.455,1.072,1.778,1.843,���쐼,8.8,��
2015/03/11,19:50,1.882,3.393,3.692,3.340,3.457,1.072,1.777,1.847,��,9.6,��
2015/03/11,20:00,1.878,3.393,3.692,3.340,3.455,1.072,1.777,1.845,��,9.9,��
2015/03/11,20:10,1.878,3.392,3.693,3.340,3.453,1.070,1.778,1.848,��,10.1,��
2015/03/11,20:20,1.880,3.388,3.693,3.340,3.457,1.067,1.778,1.845,��,9.9,��
2015/03/11,20:30,1.878,3.388,3.692,3.340,3.455,1.070,1.778,1.845,���쐼,7.7,��
2015/03/11,20:40,1.880,3.390,3.690,3.335,3.457,1.072,1.778,1.845,���쐼,7.2,��
2015/03/11,20:50,1.877,3.390,3.685,3.340,3.452,1.073,1.778,1.843,���쐼,5.5,��
2015/03/11,21:00,1.877,3.393,3.692,3.342,3.450,1.070,1.775,1.848,��,6.3,��
2015/03/11,21:10,1.880,3.392,3.690,3.337,3.455,1.068,1.777,1.848,���쐼,5.8,��
2015/03/11,21:20,1.882,3.388,3.690,3.335,3.457,1.072,1.775,1.845,���쐼,7.5,��
2015/03/11,21:30,1.882,3.388,3.687,3.338,3.455,1.070,1.775,1.845,�쐼,5.7,��
2015/03/11,21:40,1.877,3.387,3.690,3.342,3.458,1.070,1.777,1.845,���쐼,8.2,��
2015/03/11,21:50,1.878,3.387,3.692,3.340,3.460,1.070,1.777,1.843,���쐼,6.6,��
2015/03/11,22:00,1.873,3.387,3.692,3.337,3.462,1.068,1.778,1.845,���쐼,7.1,��
2015/03/11,22:10,1.882,3.390,3.688,3.338,3.457,1.073,1.777,1.847,���쐼,6.3,��
2015/03/11,22:20,1.880,3.390,3.690,3.340,3.458,1.072,1.775,1.848,���쐼,5.0,��
2015/03/11,22:30,1.878,3.393,3.690,3.342,3.458,1.070,1.775,1.842,���쐼,4.5,��
2015/03/11,22:40,1.880,3.388,3.692,3.338,3.457,1.072,1.773,1.845,�쐼,2.6,��
2015/03/11,22:50,1.880,3.390,3.687,3.338,3.457,1.070,1.772,1.843,�쐼,2.3,��
2015/03/11,23:00,1.880,3.388,3.690,3.337,3.460,1.070,1.773,1.845,��쐼,2.8,��
2015/03/11,23:10,1.878,3.387,3.690,3.333,3.457,1.072,1.772,1.843,�쐼,3.1,��
2015/03/11,23:20,1.873,3.385,3.685,3.340,3.460,1.070,1.773,1.845,�쐼,2.7,��
2015/03/11,23:30,1.878,3.385,3.685,3.338,3.457,1.070,1.775,1.842,��쐼,3.8,��
2015/03/11,23:40,1.873,3.388,3.688,3.338,3.455,1.072,1.773,1.845,�쐼,3.5,��
2015/03/11,23:50,1.872,3.388,3.685,3.330,3.458,1.072,1.773,1.843,�쐼,5.1,��
